Greenville, MS

7:39 PM CDT on May 28, 2017 (GMT -0500)
Mid Delta Regional

Weather History for KGLH - May, 2012

Change the Weather History Date:

Friday, May 4, 2012

  Actual Average Record
Temperature  
Mean Temperature 81 °F 69 °F  
Max Temperature 91 °F 79 °F 92 °F (1943)
Min Temperature 70 °F 59 °F 36 °F (2013)
Degree Days  
Heating Degree Days 0 1  
Month to date heating degree days 0 4  
Since 1 July heating degree days 2118 2765  
Cooling Degree Days 16 5  
Month to date cooling degree days 56 19  
Year to date cooling degree days 244 105  
Growing Degree Days 30 (Base 50)    
Moisture  
Dew Point 70 °F    
Average Humidity 73    
Maximum Humidity 93    
Minimum Humidity 52    
Precipitation  
Precipitation 0.00 in 0.18 in 2.90 in (1979)
Month to date precipitation 0.42 0.71  
Year to date precipitation 13.17 20.06  
Sea Level Pressure  
Sea Level Pressure 29.99 in    
Wind  
Wind Speed 7 mph (South)    
Max Wind Speed 13 mph    
Max Gust Speed 16 mph    
Visibility 10 miles    
Events      
T = Trace of Precipitation, MM = Missing Value Source: NWS Daily Summary

Daily Weather History Graph

Daily Weather History Graph

Search for Another Location

Airport or City:

Trip Planner

Search our weather history database for the weather conditions in past years. The results will help you decide how hot, cold, wet, or windy it might be!

Date:

Astronomy

May. 04, 2012 Rise Set
Actual Time 6:12 AM CDT 7:49 PM CDT
Civil Twilight 5:45 AM CDT 8:16 PM CDT
Nautical Twilight 5:13 AM CDT 8:48 PM CDT
Astronomical Twilight 4:39 AM CDT 9:22 PM CDT
Moon 6:29 PM CDT (5/4) 4:49 AM CDT (5/4)
Length of Visible Light 14h 30m
Length of Day
13h 37m
Waxing Gibbous, 97% of the Moon is Illuminated
May 4
Waxing Gibbous
May 5
Full
May 12
Last Quarter
May 20
New
May 28
First Quarter

Hourly Weather History & Observations

Time (CDT) Temp. Heat Index Dew Point Humidity Pressure Visibility Wind Dir Wind Speed Gust Speed Precip Events Conditions
12:53 AM 75.0 °F - 70.0 °F 84% 29.99 in 10.0 mi SSE 10.4 mph - N/A   Clear
1:53 AM 73.0 °F - 70.0 °F 90% 29.99 in 10.0 mi SSE 5.8 mph - N/A   Clear
2:53 AM 73.0 °F - 71.1 °F 93% 29.97 in 10.0 mi SSE 6.9 mph - N/A   Clear
3:53 AM 72.0 °F - 70.0 °F 93% 29.97 in 10.0 mi SSE 8.1 mph - N/A   Clear
4:53 AM 71.1 °F - 70.0 °F 96% 29.97 in 9.0 mi South 6.9 mph - N/A   Clear
5:53 AM 71.1 °F - 70.0 °F 96% 29.99 in 8.0 mi South 5.8 mph - N/A   Clear
6:53 AM 71.1 °F - 70.0 °F 96% 30.01 in 8.0 mi SSE 5.8 mph - N/A   Clear
7:05 AM 71.6 °F - 69.8 °F 94% 30.01 in 7.0 mi SSE 4.6 mph - N/A   Partly Cloudy
7:40 AM 71.6 °F - 71.6 °F 100% 30.01 in 8.0 mi SSE 8.1 mph - N/A   Mostly Cloudy
7:53 AM 73.0 °F - 71.1 °F 93% 30.03 in 8.0 mi South 9.2 mph - N/A   Mostly Cloudy
8:51 AM 75.2 °F - 71.6 °F 89% 30.02 in 10.0 mi South 10.4 mph - N/A   Mostly Cloudy
8:53 AM 77.0 °F - 72.0 °F 84% 30.04 in 10.0 mi South 10.4 mph - N/A   Mostly Cloudy
9:53 AM 80.1 °F 83.8 °F 72.0 °F 76% 30.05 in 10.0 mi SSE 6.9 mph - N/A   Partly Cloudy
10:53 AM 84.0 °F 90.2 °F 73.0 °F 69% 30.04 in 10.0 mi SSE 8.1 mph - N/A   Clear
11:53 AM 84.0 °F 89.0 °F 71.1 °F 65% 30.03 in 10.0 mi South 6.9 mph - N/A   Mostly Cloudy
12:53 PM 87.1 °F 92.8 °F 71.1 °F 59% 30.03 in 10.0 mi SW 9.2 mph - N/A   Partly Cloudy
1:53 PM 90.0 °F 94.5 °F 69.1 °F 50% 30.01 in 10.0 mi South 9.2 mph - N/A   Clear
2:53 PM 88.0 °F 91.4 °F 68.0 °F 51% 30.00 in 10.0 mi South 5.8 mph - N/A   Partly Cloudy
3:53 PM 88.0 °F 91.4 °F 68.0 °F 51% 29.96 in 10.0 mi South 10.4 mph - N/A   Mostly Cloudy
4:53 PM 90.0 °F 94.5 °F 69.1 °F 50% 29.95 in 10.0 mi SSW 11.5 mph - N/A   Partly Cloudy
5:53 PM 88.0 °F 91.4 °F 68.0 °F 51% 29.95 in 10.0 mi SSW 8.1 mph - N/A   Scattered Clouds
6:53 PM 87.1 °F 90.6 °F 68.0 °F 53% 29.95 in 10.0 mi SW 9.2 mph - N/A   Mostly Cloudy
7:53 PM 81.0 °F 83.8 °F 68.0 °F 65% 29.94 in 10.0 mi South 5.8 mph - N/A   Scattered Clouds
8:53 PM 80.1 °F 82.7 °F 68.0 °F 67% 29.94 in 10.0 mi South 5.8 mph - N/A   Partly Cloudy
9:53 PM 75.0 °F - 68.0 °F 79% 29.94 in 10.0 mi South 6.9 mph - N/A   Clear
10:53 PM 75.0 °F - 68.0 °F 79% 29.95 in 10.0 mi South 5.8 mph - N/A   Clear
11:53 PM 73.9 °F - 69.1 °F 85% 29.96 in 10.0 mi South 4.6 mph - N/A   Partly Cloudy